TIME,DELAY(SENSOR),PRES,OXYGEN,RAWTEMP,T(OPTODE),TCPHASE,FLUOR,BETA(BETA700),BETA(BETA412),BETA(BETA440),CDOM,C(CSC),ED(ED411.90),ED(ED443.80),ED(ED489.40),ED(ED554.70),LU(LU412.20),LU(LU443.80),LU(LU489.40),LU(LU555.00),COMP,TILTX,TILTY,CHECK
1360104611,5805,885.6699829101562000,176.3547973632812500,470.9367980957031000,8.4284381866455080,38.9506111145019500,60,138,98,81,80,11987,2146962002,2147517074,2147289197,2147508854,2147086198,2146932096,2147718418,2147127332,844,-1,8,1234
1360108208,5806,981.5900268554688000,217.2281951904297000,528.5166015625000000,6.6419868469238280,37.3826408386230500,60,139,98,79,80,11980,2146963117,2147514112,2147299437,2147520009,2147090148,2146923428,2147725046,2147125504,1013,-1,9,45935
1360111808,5803,988.5200195312500000,228.0182952880859400,536.5175170898438000,6.3919301033020020,36.9281806945800800,63,141,99,78,80,11978,2146962587,2147514596,2147300909,2147519972,2147091090,2146922724,2147724342,2147120832,3454,-1,8,38887
1360115408,5805,999.0200195312500000,229.7160949707031200,536.8060302734375000,6.3829002380371090,36.8418998718261700,63,139,97,78,80,11977,2146961371,2147517558,2147299748,2147519414,2147091309,2146918464,2147723776,2147122678,3546,0,8,32281
1360119008,5807,998.1199951171875000,227.9243011474609400,537.2238769531250000,6.3698267936706540,36.9457092285156250,64,139,99,79,82,11974,2146962075,2147517092,2147298724,2147521499,2147085366,2146924617,2147726070,2147122688,157,0,8,49383
1360122608,5806,999.8200073242188000,234.2828063964843800,540.2716064453125000,6.2744288444519040,36.6623992919921900,63,138,98,77,80,11975,2146963172,2147517248,2147300461,2147518546,2147086016,2146921280,2147728265,2147122432,3293,-1,8,41041
1360126208,5804,1001.3900146484375000,234.3889007568359400,540.9428100585938000,6.2534117698669430,36.6682586669921900,63,136,98,78,80,11974,2146965010,2147521252,2147302546,2147521380,2147090276,2146924224,2147729261,2147122148,3483,-1,8,26142
1360129808,5805,999.0900268554688000,235.0709991455078000,542.4558105468750000,6.2060198783874510,36.6604690551757800,64,137,102,81,81,11969,2146961755,2147517650,2147298304,2147519908,2147091373,2146919552,2147727771,2147120493,426,0,8,61264
1360133408,5802,995.0700073242188000,233.9524993896484400,544.7396240234375000,6.1344490051269530,36.7602996826171900,63,135,98,78,82,11974,2146964489,2147519195,2147298258,2147522112,2147087899,2146923300,2147726162,2147122148,2939,-1,8,17330
1360137008,5806,995.5800170898438000,239.2624053955078000,545.6580200195312000,6.1056561470031740,36.5007095336914060,63,135,99,77,81,11972,2146960594,2147515931,2147298998,2147520237,2147089773,2146920429,2147734308,2147122761,3149,0,8,42006
1360140608,5807,1000.2800292968750000,240.4557952880859400,545.5886840820312000,6.1078300476074220,36.4384307861328100,63,134,98,79,81,11972,2146962761,2147517485,2147300132,2147522121,2147090011,2146917275,2147730834,2147122797,3209,-1,8,7485
1360144208,5805,997.7700195312500000,239.3724975585937500,545.5302734375000000,6.1096591949462890,36.4922904968261700,63,135,98,79,80,11973,2146963355,2147513865,2147300452,2147518912,2147089974,2146926363,2147728740,2147120585,3370,-1,8,53649
1360147808,5807,1003.0300292968750000,239.5854949951172000,545.7329711914062000,6.1033058166503910,36.4850807189941400,63,134,97,79,81,11973,2146962541,2147516800,2147298688,2147519177,2147092214,2146922240,2147728173,2147121636,2921,0,8,25560
1360151408,5804,1007.1799926757812000,238.7149963378906200,544.2352294921875000,6.1502590179443360,36.5029792785644500,62,135,97,81,80,11971,2146966006,2147516845,2147300662,2147519488,2147088054,2146922413,2147726445,2147124032,2733,-1,8,48293
1360155008,5806,1005.1300048828125000,237.4179992675781200,544.9379882812500000,6.1282310485839840,36.5830116271972660,62,139,98,79,81,11970,2146960868,2147516425,2147301504,2147521956,2147089206,2146920484,2147730029,2147119954,365,-1,8,28747
1360158608,5806,1005.3800048828125000,238.3309936523437500,544.6970214843750000,6.1357841491699220,36.5312194824218750,62,134,97,79,80,11966,2146963574,2147517129,2147301686,2147523245,2147088374,2146925613,2147728786,2147123044,1048,-1,8,52006
1360162208,5802,1010.2100219726562000,238.6580047607422000,543.7481079101562000,6.1655249595642090,36.4971504211425800,62,134,99,79,80,11967,2146963483,2147520091,2147301440,2147524178,2147088795,2146923428,2147725184,2147121993,3488,-1,8,33852
1360165808,5806,1006.7199707031250000,237.8614959716797000,544.9434814453125000,6.1280570030212400,36.5597991943359400,62,131,97,80,80,11961,2146961947,2147513590,2147297307,2147520320,2147092571,2146915840,2147728064,2147121526,3109,-1,8,43637
1360169408,5805,1007.1099853515625000,239.3733978271484400,544.8508911132812000,6.1309599876403810,36.4804496765136700,62,134,98,77,80,11966,2146961755,2147517558,2147302656,2147522203,2147090130,2146922240,2147732452,2147121709,3320,-1,8,31494
1360173008,5803,1002.2299804687500000,236.7494049072265600,545.5914916992188000,6.1077418327331540,36.6287498474121100,62,133,98,79,80,11964,2146961472,2147517778,2147298761,2147520960,2147089554,2146922066,2147730834,2147122523,3222,-1,8,53387
1360176608,5809,1001.6500244140625000,240.1640014648437500,546.3057861328125000,6.0853419303894040,36.4659194946289060,62,132,98,79,79,11964,2146962203,2147519817,2147299977,2147525659,2147088310,2146926016,2147725741,2147120612,93,-1,8,17713
1360180208,5806,1000.0800170898438000,241.5986938476562500,547.5300292968750000,6.0469489097595215,36.4146003723144500,62,135,98,78,80,11968,2146961819,2147517193,2147300681,2147519862,2147090614,2146920329,2147726116,2147122861,289,0,8,13751
1360183808,5808,1003.9699707031250000,242.9362945556640600,547.8087158203125000,6.0382061004638670,36.3523292541503900,62,136,98,78,81,11963,2146963099,2147516690,2147298605,2147523337,2147089398,2146921801,2147730889,2147121462,158,-1,8,53023
1360187408,5803,1004.8699951171875000,243.0596923828125000,547.7656250000000000,6.0395579338073730,36.3453788757324200,62,134,97,79,81,11962,2146965037,2147519734,2147298870,2147522806,2147090377,2146922569,2147729243,2147121901,3520,-1,8,19698
1360191008,5806,1005.6799926757812000,240.2326049804687500,547.5151977539062000,6.0474128723144530,36.4845695495605500,62,133,98,78,81,11965,2146963803,2147522377,2147303744,2147522697,2147089115,2146924562,2147728886,2147122011,3533,0,8,28535
1360194608,5803,1008.8099975585938000,239.9049072265625000,547.2916259765625000,6.0544238090515140,36.4970817565918000,62,133,99,80,80,11964,2146962386,2147519296,2147299456,2147521517,2147089088,2146922212,2147726564,2147124489,3560,-1,8,41467
1360198208,5806,1005.7700195312500000,241.1676025390625000,546.8975830078125000,6.0667839050292970,36.4254913330078100,62,134,99,80,80,11959,2146959579,2147517677,2147302354,2147521627,2147092516,2146923117,2147729828,2147123346,3342,0,8,41530
1360201808,5808,1008.9199829101562000,242.0789947509765600,547.1129150390625000,6.0600318908691410,36.3828582763671900,62,135,98,79,81,11967,2146963922,2147517229,2147303286,2147520612,2147088320,2146921536,2147726765,2147119926,192,-1,8,6565
1360205408,5806,1007.9799804687500000,240.9483032226562500,546.7913818359375000,6.0701160430908200,36.4351005554199200,63,133,96,79,80,11963,2146964928,2147518646,2147303369,2147522633,2147091931,2146920594,2147722870,2147119597,393,-1,8,6955
1360209008,5806,1003.9899902343750000,240.0254058837890600,548.6508178710938000,6.0117840766906740,36.5157508850097660,62,133,97,80,81,11963,2146962752,2147516352,2147302025,2147521883,2147088886,2146924077,2147727817,2147123300,3387,-1,8,6408
1360212608,5806,1007.3200073242188000,242.6340026855468800,548.8735961914062000,6.0047931671142580,36.3870506286621100,62,136,97,79,81,11960,2146965211,2147518281,2147302281,2147520365,2147089252,2146922276,2147731885,2147121874,3315,0,8,4643
1360216208,5804,1003.2399902343750000,241.2384948730468800,549.0366210937500000,5.9996781349182130,36.4609909057617200,62,135,98,78,81,11958,2146964150,2147516992,2147304502,2147521069,2147089664,2146927972,2147729965,2147123190,3438,-1,8,9438
1360219808,5806,1005.9099731445312000,243.7619934082031200,550.3110961914062000,5.9596772193908690,36.3556900024414060,63,136,97,79,82,11957,2146960283,2147519844,2147302235,2147520018,2147089024,2146923017,2147727186,2147120859,340,-1,8,13605
1360223408,5809,1003.3599853515625000,243.1329956054687500,550.2531738281250000,5.9614958763122560,36.3868103027343750,61,136,98,80,80,11952,2146959780,2147517897,2147301513,2147525266,2147090267,2146920566,2147730541,2147124077,31,0,8,2198
1360227008,5806,1002.1099853515625000,244.5863952636718800,550.2495727539062000,5.9616069793701170,36.3129997253418000,62,137,97,79,82,11953,2146967286,2147516278,2147300397,2147522422,2147090843,2146918153,2147729462,2147123620,2968,0,8,31872
1360230608,5806,1004.6900024414062000,245.1394958496093800,550.0255737304688000,5.9686369895935060,36.2814712524414060,62,136,99,79,81,11952,2146963227,2147516836,2147301348,2147523748,2147091529,2146918966,2147729499,2147123675,3202,-1,8,42854
1360234208,5804,1004.2700195312500000,245.1273040771484400,550.5109863281250000,5.9534020423889160,36.2908592224121100,62,140,98,79,82,11951,2146961188,2147515986,2147303094,2147522953,2147089709,2146924397,2147726601,2147122130,3091,-1,8,15870
1360237808,5805,1009.9500122070312000,245.3105010986328000,549.2346801757812000,5.9934620857238770,36.2584800720214840,62,137,98,78,81,11952,2146959213,2147520100,2147299757,2147521344,2147089773,2146921444,2147732809,2147120649,3300,-1,8,22555
1360241408,5805,1012.4299926757812000,242.8135070800781200,547.8079833984375000,6.0382270812988280,36.3580894470214840,62,139,98,81,80,11949,2146960987,2147517220,2147299986,2147522752,2147087625,2146921755,2147728118,2147124297,3130,-1,8,54509
1360245008,5804,1006.4699707031250000,244.0046997070312500,549.5916748046875000,5.9822559356689450,36.3308486938476560,62,139,98,78,80,11950,2146964251,2147517915,2147301376,2147522358,2147090560,2146921362,2147731382,2147119725,3519,-1,8,35768
1360248356,5807,1006.2500000000000000,246.0558013916015600,550.6525878906250000,5.9489569664001465,36.2467498779296900,62,138,98,80,81,11938,2146963949,2147516050,2147300955,2147526857,2147090998,2146923181,2147731364,2147123547,3105,0,8,3906
